カタログに戻る

STARLINK-33750

運用中通信VLEO
NORAD 63513·PAYLOAD·🇺🇸 United States

打ち上げ Apr 7, 2025 から Vandenberg Space Force Base

Loading…

次のパス (今後24時間)

TLE

最新Source: CelesTrak SupGP

元期: Sep 15, 2026, 02:52 UTC

1 63513C 25071W   26258.11993056  .00067300  00000+0  21640-2 0  2588
2 63513  53.1593 338.6749 0001211  93.2211 179.0091 15.31670737    17

AllMySatでSTARLINK-33750をリアルタイム追跡

Download on the App Store